User: anonymous   Login
Location: Unspecified
(0.0000°N, 0.0000°E)
Time: 00:21:01
(UTC+01:00)
Language:

Resurs 01 Rocket - Orbit

View from above orbital plane
View from above orbital plane
View from above satellite
View from above satellite

Ground track
Ground track

The orbit data is extracted from the following two-line orbital elements,

1 23343U 94074B   17019.75748931 -.00000043  00000-0  14720-5 0  9998
2 23343  98.1723  55.2116 0006879 178.2534 312.4482 14.76685805194926
Epoch (UTC): 19 January 2017 18:10:47
Eccentricity: 0.0006879
inclination: 98.1723°
perigee height: 635 km
apogee height: 644 km
right ascension of ascending node: 55.2116°
argument of perigee: 178.2534°
revolutions per day: 14.76685805
mean anomaly at epoch: 312.4482°
orbit number at epoch: 19492

The dashed part of the orbit path shows where the satellite is in the earth's shadow,  

DLR